Skip Page Navigation
NASA JPL Caltech
NASA Logo - Jet Propulsion Laboratory + View the NASA Portal
+ Center for Near-Earth Object Studies
JPL Home Earth Solar System Stars & Galaxies Technology
JPL Solar System Dynamics
BODIES ORBITS EPHEMERIDES TOOLS PHYSICAL DATA DISCOVERY FAQ SITE MAP
IMPORTANT: The SSD Announcement email list is now available. Major changes are coming in the near future, including possible hostname and/or URL changes. To be notified of such changes, subscribe to this email list.

Please visit this page for more details.


JPL Small-Body Database Browser
Search: [ help ]  
469930 (2006 AO11)
Classification: Main-belt Asteroid          SPK-ID: 2469930
Ephemeris | Orbit Diagram | Orbital Elements | Mission Design | Physical Parameters | Discovery Circumstances ]

[ show orbit diagram ]
Orbital Elements at Epoch 2459000.5 (2020-May-31.0) TDB
Reference: JPL 9 (heliocentric ecliptic J2000)
 Element Value Uncertainty (1-sigma)   Units 
e .1868676015582728 8.2509e-08  
a 2.459674026718048 3.2869e-08 au
q 2.000040640730067 2.1685e-07 au
i 2.537622779948558 1.7955e-05 deg
node 173.7408625514482 0.00022907 deg
peri 249.6381880630221 0.00024733 deg
M 294.6520371100447 9.6278e-05 deg
tp 2459256.266884044261
(2021-Feb-10.76688404)
0.00038085 TDB
period 1409.012219875749
3.86
2.8243e-05
7.733e-08
d
yr
n .2554981389953778 5.1214e-09 deg/d
Q 2.919307412706029 3.9011e-08 au
  Orbit Determination Parameters
   # obs. used (total)      71  
   data-arc span      7441 days (20.37 yr)  
   first obs. used      1997-11-02  
   last obs. used      2018-03-18  
   planetary ephem.      DE431  
   SB-pert. ephem.      SB431-N16  
   condition code      0  
   norm. resid. RMS      .75923  
   source      ORB  
   producer      Otto Matic  
   solution date      2019-Jul-14 06:23:08  

Additional Information
 Earth MOID = 1.01492 au 
 Jupiter MOID = 2.40212 au 
 T_jup = 3.465 
[ show covariance matrix ]

Ephemeris | Orbit Diagram | Orbital Elements | Mission Design | Physical Parameters | Discovery Circumstances ]

Physical Parameter Table
Parameter Symbol Value Units Sigma Reference Notes
absolute magnitude H 18.1   n/a MPO440884  

469930 (2006 AO11)          Discovered 2006-Jan-02 by Mt. Lemmon Survey at Mount Lemmon
Reference: Last Updated: 2016-08-22
Ephemeris | Orbit Diagram | Orbital Elements | Mission Design | Physical Parameters | Discovery Circumstances ]
ABOUT SSD CREDITS/AWARDS PRIVACY/COPYRIGHT GLOSSARY LINKS
FirstGov 2020-Jun-02 03:10 UT
(server date/time)  
NASA Home Page
Site Manager:   Ryan S. Park
Webmaster  Alan B. Chamberlin